ZS1BR-13 Weather Reports


time (UTC)temp
F
wind
direction
speed
knots
gust
knots
rain 1hr
in
rain 24hr
in
rain mn
in
humidity
%
barometer
mb
20260505225616 62 0 0.0 0.0 0.00 0.00 0.00 70 1018.4
20260505224610 62 0 0.0 0.0 0.00 0.00 0.00 70 1018.5
20260505223604 62 0 0.0 0.0 0.00 0.00 0.00 70 1018.6
20260505222556 62 0 0.0 0.0 0.00 0.00 0.00 69 1018.7
20260505221548 62 0 0.0 0.0 0.00 0.00 0.00 68 1018.7
20260505220541 62 0 0.0 0.0 0.00 0.00 0.00 68 1018.7
20260505215535 63 0 0.0 0.0 0.00 0.00 0.00 68 1018.6
20260505214527 63 0 0.0 0.0 0.00 0.00 0.00 67 1018.9
20260505213519 63 0 0.0 0.0 0.00 0.00 0.00 67 1018.9
20260505212613 63 0 0.0 0.0 0.00 0.00 0.00 67 1018.9
20260505211606 63 0 0.0 0.0 0.00 0.00 0.00 66 1018.7
20260505210559 63 0 0.0 0.0 0.00 0.00 0.00 66 1018.4
20260505205552 63 0 0.0 0.0 0.00 0.00 0.00 65 1018.4
20260505204544 64 0 0.0 0.0 0.00 0.00 0.00 65 1018.5
20260505203536 64 0 0.0 0.0 0.00 0.00 0.00 65 1018.6
20260505202529 64 0 0.0 0.0 0.00 0.00 0.00 64 1018.6
20260505201522 64 0 0.0 0.0 0.00 0.00 0.00 64 1018.5
20260505200616 64 0 0.0 0.0 0.00 0.00 0.00 63 1018.5
20260505195609 65 0 0.0 0.0 0.00 0.00 0.00 63 1018.5
20260505194602 65 0 0.0 0.0 0.00 0.00 0.00 63 1018.6
20260505193555 65 0 0.0 0.0 0.00 0.00 0.00 62 1018.7
20260505192548 65 0 0.0 0.0 0.00 0.00 0.00 62 1018.7
20260505191541 65 0 0.0 0.0 0.00 0.00 0.00 62 1018.8
20260505190535 65 0 0.0 0.0 0.00 0.00 0.00 62 1018.6
20260505185526 65 0 0.0 0.0 0.00 0.00 0.00 62 1018.4
20260505184519 65 0 0.0 0.0 0.00 0.00 0.00 62 1018.2
20260505183612 66 0 0.0 0.0 0.00 0.00 0.00 62 1018.2
20260505182606 66 0 0.0 0.0 0.00 0.00 0.00 62 1018.0
20260505181558 66 0 0.0 0.0 0.00 0.00 0.00 62 1017.8
20260505180551 66 0 0.0 0.0 0.00 0.00 0.00 62 1017.7
20260505175545 66 0 0.0 0.0 0.00 0.00 0.00 62 1017.6
20260505174537 66 0 0.0 0.0 0.00 0.00 0.00 62 1017.5
20260505173529 66 0 0.0 0.0 0.00 0.00 0.00 61 1017.5
20260505172522 66 0 0.0 0.0 0.00 0.00 0.00 61 1017.3
20260505171616 66 0 0.0 0.0 0.00 0.00 0.00 61 1017.2
20260505170609 66 0 0.0 0.0 0.00 0.00 0.00 61 1017.1
20260505165602 66 0 0.0 0.0 0.00 0.00 0.00 60 1017.0
20260505164555 67 0 0.0 0.0 0.00 0.00 0.00 59 1016.8
20260505163548 67 0 0.0 0.0 0.00 0.00 0.00 59 1016.7
20260505162541 67 0 0.0 0.0 0.00 0.00 0.00 58 1016.6
20260505161535 67 0 0.0 0.0 0.00 0.00 0.00 58 1016.5
20260505160527 67 0 0.0 0.0 0.00 0.00 0.00 57 1016.5
20260505152558 68 0 0.0 0.0 0.00 0.00 0.00 54 1016.2
20260505151552 68 0 0.0 0.0 0.00 0.00 0.00 54 1016.2
20260505150545 69 0 0.0 0.0 0.00 0.00 0.00 53 1016.2
20260505140602 70 0 0.0 0.0 0.00 0.00 0.00 54 1015.5
20260505124606 69 0 0.0 0.0 0.00 0.00 0.00 57 1015.2
20260505123558 69 0 0.0 0.0 0.00 0.00 0.00 57 1015.2
20260505122552 69 0 0.0 0.0 0.00 0.00 0.00 58 1015.4
20260505121545 68 0 0.0 0.0 0.00 0.00 0.00 59 1015.4
20260505120538 68 0 0.0 0.0 0.00 0.00 0.00 59 1015.4
20260505115531 67 0 0.0 0.0 0.00 0.00 0.00 60 1015.4
20260505114524 67 0 0.0 0.0 0.00 0.00 0.00 61 1015.4
20260505113617 67 0 0.0 0.0 0.00 0.00 0.00 62 1015.6
20260505112610 66 0 0.0 0.0 0.00 0.00 0.00 63 1015.8
20260505111602 66 0 0.0 0.0 0.00 0.00 0.00 63 1015.9
20260505110555 66 0 0.0 0.0 0.00 0.00 0.00 63 1015.9
20260505101520 65 0 0.0 0.0 0.00 0.00 0.00 66 1016.1
20260505100613 64 0 0.0 0.0 0.00 0.00 0.00 66 1016.2
20260505095606 64 0 0.0 0.0 0.00 0.00 0.00 68 1016.2
20260505094559 64 0 0.0 0.0 0.00 0.00 0.00 68 1016.3
20260505093551 63 0 0.0 0.0 0.00 0.00 0.00 69 1016.3
20260505092545 63 0 0.0 0.0 0.00 0.00 0.00 70 1016.3
20260505091536 63 0 0.0 0.0 0.00 0.00 0.00 71 1016.3
20260505090529 62 0 0.0 0.0 0.00 0.00 0.00 72 1016.3
20260505085522 62 0 0.0 0.0 0.00 0.00 0.00 72 1016.3
20260505084616 62 0 0.0 0.0 0.00 0.00 0.00 73 1016.3
20260505083609 62 0 0.0 0.0 0.00 0.00 0.00 73 1016.4
20260505082602 62 0 0.0 0.0 0.00 0.00 0.00 73 1016.3
20260505081555 61 0 0.0 0.0 0.00 0.00 0.00 74 1016.2
20260505080548 61 0 0.0 0.0 0.00 0.00 0.00 74 1016.3
20260505075540 61 0 0.0 0.0 0.00 0.00 0.00 74 1016.3
20260505074533 61 0 0.0 0.0 0.00 0.00 0.00 74 1016.3
20260505073526 61 0 0.0 0.0 0.00 0.00 0.00 73 1016.2
20260505072519 61 0 0.0 0.0 0.00 0.00 0.00 73 1016.1
20260505071612 60 0 0.0 0.0 0.00 0.00 0.00 73 1016.1
20260505070606 60 0 0.0 0.0 0.00 0.00 0.00 72 1015.9
20260505065558 60 0 0.0 0.0 0.00 0.00 0.00 72 1015.8
20260505064551 60 0 0.0 0.0 0.00 0.00 0.00 71 1015.8
20260505063544 60 0 0.0 0.0 0.00 0.00 0.00 70 1015.7
20260505062538 60 0 0.0 0.0 0.00 0.00 0.00 70 1015.5
20260505061529 60 0 0.0 0.0 0.00 0.00 0.00 70 1015.4
20260505060523 60 0 0.0 0.0 0.00 0.00 0.00 70 1015.2
20260505055616 60 0 0.0 0.0 0.00 0.00 0.00 70 1015.1
20260505054609 61 0 0.0 0.0 0.00 0.00 0.00 70 1015.1
20260505053602 61 0 0.0 0.0 0.00 0.00 0.00 70 1015.2
20260505052556 61 0 0.0 0.0 0.00 0.00 0.00 70 1015.1
20260505051549 61 0 0.0 0.0 0.00 0.00 0.00 71 1014.9
20260505050540 61 0 0.0 0.0 0.00 0.00 0.00 71 1014.7
20260505041606 61 0 0.0 0.0 0.00 0.00 0.00 71 1014.4
20260505040559 61 0 0.0 0.0 0.00 0.00 0.00 71 1014.3
20260505035552 61 0 0.0 0.0 0.00 0.00 0.00 71 1014.4
20260505034546 61 0 0.0 0.0 0.00 0.00 0.00 71 1014.3
20260505033539 61 0 0.0 0.0 0.00 0.00 0.00 70 1014.2
20260505032532 61 0 0.0 0.0 0.00 0.00 0.00 70 1014.2
20260505031525 61 0 0.0 0.0 0.00 0.00 0.00 70 1014.2
20260505030518 61 0 0.0 0.0 0.00 0.00 0.00 70 1014.2
20260505025611 61 0 0.0 0.0 0.00 0.00 0.00 70 1014.0
20260505024603 61 0 0.0 0.0 0.00 0.00 0.00 70 1014.0
20260505023556 61 0 0.0 0.0 0.00 0.00 0.00 70 1014.1
20260505022549 62 0 0.0 0.0 0.00 0.00 0.00 70 1014.1
20260505021542 62 0 0.0 0.0 0.00 0.00 0.00 70 1014.1
20260505020535 62 0 0.0 0.0 0.00 0.00 0.00 70 1014.1
20260505015527 62 0 0.0 0.0 0.00 0.00 0.00 70 1014.0
20260505014520 62 0 0.0 0.0 0.00 0.00 0.00 70 1014.1
20260505013614 62 0 0.0 0.0 0.00 0.00 0.00 70 1014.2
20260505012607 62 0 0.0 0.0 0.00 0.00 0.00 70 1014.2
20260505011559 62 0 0.0 0.0 0.00 0.00 0.00 70 1014.3
20260505010552 62 0 0.0 0.0 0.00 0.00 0.00 70 1014.3
20260505005546 62 0 0.0 0.0 0.00 0.00 0.00 70 1014.5
20260505004539 62 0 0.0 0.0 0.00 0.00 0.00 70 1014.6
20260505003532 63 0 0.0 0.0 0.00 0.00 0.00 70 1014.6
20260505002526 63 0 0.0 0.0 0.00 0.00 0.00 70 1014.6
20260505001518 63 0 0.0 0.0 0.00 0.00 0.00 70 1014.7
20260505000612 63 0 0.0 0.0 0.00 0.00 0.00 70 1014.7
20260504235606 63 0 0.0 0.0 0.00 0.00 0.00 70 1014.7
20260504234558 63 0 0.0 0.0 0.00 0.00 0.00 70 1014.6
20260504233552 63 0 0.0 0.0 0.00 0.00 0.00 70 1014.6
20260504232545 63 0 0.0 0.0 0.00 0.00 0.00 70 1014.5
20260504231538 63 0 0.0 0.0 0.00 0.00 0.00 70 1014.5
20260504230531 63 0 0.0 0.0 0.00 0.00 0.00 70 1014.5